Starlink 11399

operational
NORAD ID: 63063 Int'l Des: 2025-035 Owner: SPXS Country: US Constellation: starlink
LEOCIRCULAR

Über Starlink 11399

Beschreibung wird geladen...

Live-Position

3D-Globus wird geladen...

Nächste Überflüge

Höhenverlauf

Altitude vs Time

uPlot chart will show altitude changes over time

Zweizeiliger Elementsatz

1 63063U 25035M 25352.49113145 .00217896 00000-0 16541-2 0 9990
2 63063 42.9986 144.4887 0003678 294.7808 65.2677 15.70883930 48454
Epoch: 18. Dez. 2025 • Age: 11 hours

Aktueller Status

Höhe 354.3 km
Geschwindigkeit 7.70 km/s
Subsatellitenpunkt 8.92°N, 85.78°E
Startdatum 21. Feb. 2025
Alter 0.8 years
Typ internet

Technische Details

Klassifizierung Payload
Masse 960.00 kg
Trockenmasse 910.00 kg
Gesamtmasse 960.00 kg
Länge 0.30 m
Durchmesser 4.10 m
Spannweite 29.00 m
Form Box + pan
Hersteller SPXS
Bus-Typ Starlink V2MD
Phasenstatus In Orbit
Besitzer/Staat SPXS/US

Große Konstellationen

Loading constellations...